Wetbulb
60.71 55.02 52.38 52.44 55.16 56.76 56.18 55.95 54.66 57.80 61.09 60.59 59.02 57.00 61.17 62.86 62.67 61.82 61.71 61.81 62.33 63.10 64.09 65.82 66.43 67.54 67.59 68.04 65.51 68.53 67.12 68.85 70.22 70.25 70.37 69.10 69.47 71.63 72.46 74.55 75.10 74.12 74.04 74.36
57.60 53.07 57.73 58.78 58.23 57.58 56.77 55.84 55.03 57.84 60.27 60.22 58.68 57.38 61.67 62.21 61.77 62.66 62.42 62.32 62.53 63.05 63.92 65.27 65.78 66.18 67.30 65.59 65.97 68.43 68.46 69.45 70.26 69.36 68.98 71.90 72.08 71.83 72.58 74.94 75.43 74.82 74.88 75.35
55.08 55.72 59.25 58.36 57.89 55.81 55.44 53.89 55.08 55.25 58.42 60.62 58.48 57.13 57.62 61.60 62.95 63.10 63.79 63.90 63.97 63.32 63.29 64.40 65.39 65.75 65.59 65.91 66.78 68.69 69.83 69.75 70.17 70.95 70.56 70.81 70.31 71.42 71.62 71.72 73.08 74.76 75.03 74.55
56.19 58.72 57.57 57.63 56.09 57.18 51.60 59.30 58.69 57.56 55.20 49.41 56.46 47.06 54.26 57.88 59.78 61.35 62.23 62.51 63.23 63.68 64.55 64.13 64.97 64.74 65.96 67.07 68.50 69.35 69.62 69.42 69.84 70.14 69.44 69.25 67.11 67.08 69.92 71.67 72.07 73.00 73.93 75.28
54.96 57.05 56.39 54.92 56.69 58.50 56.65 60.24 58.48 58.18 52.88 50.83 51.45 48.00 49.28 54.98 56.63 59.21 61.17 62.72 63.17 63.67 64.76 64.37 63.81 65.84 67.66 68.87 68.88 69.11 69.75 68.89 69.92 69.96 70.12 69.73 67.57 68.63 70.02 71.83 70.47 70.69 72.27 74.09
57.29 60.82 58.61 56.89 59.68 60.06 61.43 57.56 55.04 53.00 50.01 43.91 47.99 48.46 49.39 50.93 53.64 59.46 61.49 62.78 63.60 63.67 64.97 65.51 65.92 65.86 67.93 69.26 69.65 69.51 69.24 68.96 69.09 69.62 69.95 70.86 68.88 69.21 70.34 70.94 69.97 71.86 73.21 74.75
52.90 55.33 58.84 59.99 55.93 59.25 56.69 48.75 42.95 42.59 43.50 42.59 48.89 48.44 50.48 57.38 60.10 59.81 60.77 61.93 63.26 63.82 64.38 65.27 65.15 64.64 66.58 67.42 68.67 69.29 68.48 68.00 69.10 70.47 70.22 71.45 69.93 68.37 69.26 71.42 70.57 70.86 71.35 73.83
46.99 46.70 54.38 58.49 56.33 54.86 52.49 48.70 43.92 41.86 43.35 44.99 49.28 45.88 50.05 58.34 60.24 61.97 62.25 63.47 63.76 63.61 63.44 65.09 66.17 65.50 64.49 67.40 68.12 68.71 68.24 68.02 69.81 71.25 70.61 71.17 71.85 71.55 70.36 70.12 71.15 71.43 72.24 72.23
45.54 48.24 55.88 58.13 59.62 56.01 51.37 47.87 52.25 46.90 48.73 45.62 48.57 51.37 55.29 58.93 60.25 61.14 60.26 61.75 62.89 63.48 63.51 64.29 65.67 65.37 65.00 66.92 67.57 68.24 68.85 69.19 70.46 71.17 71.58 71.19 71.41 72.21 72.18 71.77 71.28 71.08 72.01 74.69
49.90 44.26 50.57 55.39 57.80 56.97 54.47 55.51 47.87 47.39 41.56 42.41 47.58 48.70 48.01 54.09 57.02 61.24 59.82 60.43 62.52 63.23 63.44 63.99 64.78 65.15 64.72 67.36 67.40 69.27 69.93 69.76 71.11 70.92 71.95 72.34 71.53 72.08 72.02 71.54 72.61 73.93 72.01 73.73
50.22 43.75 45.87 50.66 51.45 51.01 51.61 49.40 50.14 50.67 48.61 43.37 42.47 46.13 54.59 56.76 58.61 59.72 60.90 61.20 61.69 62.50 62.65 63.88 64.42 65.46 65.61 66.71 68.51 69.34 69.85 69.53 70.95 71.54 72.27 72.96 73.13 72.97 73.14 72.79 73.23 73.85 74.05 74.72
50.93 43.82 42.48 45.26 50.03 56.47 53.26 51.10 50.30 45.89 45.18 45.61 46.19 46.84 57.68 59.11 60.24 60.58 60.88 61.48 62.48 63.05 62.68 63.37 63.92 64.85 65.41 66.64 68.59 69.58 69.17 69.51 69.88 69.95 72.57 72.81 73.82 74.15 73.61 73.40 73.43 73.70 73.68 74.29
50.30 43.70 40.20 42.56 45.51 51.88 49.40 50.96 49.15 49.96 48.79 44.84 43.14 47.00 58.13 57.41 57.96 60.72 62.15 61.55 61.60 61.83 61.60 61.73 63.13 63.87 65.15 66.22 67.71 68.11 68.58 68.05 68.02 68.31 69.83 73.01 73.23 73.87 73.82 73.92 73.90 73.58 74.45 73.78
54.06 44.04 42.57 40.10 43.57 45.81 46.90 51.91 52.06 49.03 46.25 47.11 47.01 49.43 53.14 56.59 58.08 60.05 61.95 63.91 64.82 63.80 62.63 62.93 63.68 66.09 66.96 67.90 67.38 66.63 68.39 69.02 67.70 65.79 66.58 71.87 73.43 74.16 74.06 74.20 73.92 73.77 74.66 72.87
52.39 45.34 46.64 45.44 47.67 49.36 48.71 51.26 51.47 47.53 46.90 48.46 50.90 50.09 52.33 54.30 57.98 59.54 61.86 63.35 63.58 62.76 62.16 63.44 64.04 65.58 66.74 66.61 67.44 68.96 68.05 65.90 66.48 65.98 65.26 67.80 73.75 74.21 73.68 74.80 73.90 74.96 73.07 73.60
52.97 48.98 48.64 48.80 52.73 52.79 50.06 52.28 51.60 51.96 52.95 50.69 50.54 51.56 55.06 55.79 56.92 58.11 61.47 63.83 62.53 62.47 63.49 62.49 62.27 64.85 67.27 67.17 67.41 67.91 68.26 67.75 66.43 65.18 65.23 70.99 73.23 73.84 74.40 72.85 72.90 73.45 73.09 71.45
49.97 48.40 46.93 44.62 49.43 49.76 47.07 49.59 50.80 51.47 52.20 50.64 47.60 52.51 55.65 56.14 56.70 57.59 60.86 64.31 63.95 64.11 63.74 63.08 63.45 64.23 67.82 70.56 70.02 69.37 69.62 69.21 69.45 73.98 74.66 74.93 75.36 74.60 73.16 71.53 72.51 72.33 71.74 70.72
49.35 45.58 45.98 44.40 45.38 40.45 49.28 52.83 54.62 53.02 53.54 53.21 52.75 54.32 57.24 58.06 59.71 60.26 64.46 65.59 65.07 66.02 65.83 64.79 65.00 64.62 65.06 72.48 72.78 73.07 73.57 74.55 73.14 72.93 74.67 75.58 75.17 73.23 72.62 73.35 71.57 72.53 70.20 69.98
50.00 46.16 43.06 42.98 41.32 46.76 51.10 53.58 53.13 51.56 52.91 55.84 54.46 55.85 58.23 59.31 59.75 61.38 66.60 67.83 66.39 66.11 67.54 67.23 67.18 66.66 65.67 72.54 70.29 66.82 71.35 73.06 73.51 72.69 73.58 74.36 73.38 72.37 72.62 71.73 72.60 70.56 70.88 69.44
46.10 46.28 45.12 42.48 41.53 41.45 49.72 57.39 58.10 54.23 47.34 58.55 58.35 57.29 56.99 57.12 54.40 59.36 66.02 68.28 67.61 67.82 67.22 67.05 67.35 71.43 71.92 72.14 66.73 66.87 71.62 71.44 71.18 71.63 72.54 73.45 73.52 74.15 73.40 72.36 70.48 69.59 69.14 68.65
40.07 41.93 42.77 44.38 44.01 48.43 54.53 58.14 57.62 46.83 49.13 58.88 59.38 58.66 57.94 58.10 59.06 62.36 66.54 67.48 69.02 68.54 67.58 68.76 71.49 71.57 73.03 73.65 73.03 71.93 71.50 71.27 72.22 73.18 73.43 73.67 74.18 73.39 72.61 70.81 69.88 68.33 67.43 66.49
41.46 41.10 41.45 44.98 44.40 42.52 55.71 56.89 51.97 54.72 52.99 55.59 59.49 59.96 61.63 62.75 62.88 62.52 66.15 66.51 68.13 68.06 68.74 71.08 70.70 71.78 72.67 72.96 72.61 70.87 70.76 71.76 72.45 72.55 72.39 72.19 72.06 72.46 71.32 69.85 68.58 67.86 67.14 66.31
39.57 40.76 39.16 42.67 45.79 52.94 52.05 48.77 48.93 50.47 50.37 52.07 59.25 60.98 62.05 61.49 62.27 62.57 64.97 65.71 66.14 67.78 69.00 70.54 70.07 69.96 71.70 72.14 72.18 70.77 71.20 71.77 71.78 71.63 71.60 71.23 71.24 71.17 70.40 68.99 67.64 66.67 65.81 65.81
40.98 41.92 37.83 41.01 45.89 47.20 47.20 48.41 49.53 50.37 51.13 56.79 61.59 61.05 61.85 60.95 63.40 63.72 65.85 66.41 67.37 67.24 67.78 69.24 68.61 70.27 70.25 71.73 71.93 71.87 71.71 71.93 71.28 70.58 70.70 70.58 70.43 70.12 69.77 69.44 68.33 66.96 65.74 65.70
40.05 40.63 37.82 38.50 42.73 45.12 47.32 48.12 49.54 51.63 53.22 54.71 57.84 60.88 61.40 62.52 62.43 65.63 66.43 65.68 65.27 67.65 67.79 67.98 69.89 70.29 71.11 71.75 71.74 72.19 72.20 71.52 70.19 70.87 70.73 69.89 70.00 70.00 69.82 67.57 67.99 69.78 67.27 65.01
40.37 38.81 37.11 38.50 42.37 42.54 43.72 48.35 49.88 50.74 51.29 54.08 54.70 60.55 62.72 63.43 61.41 65.09 64.78 63.18 63.49 66.53 67.78 67.59 70.35 70.60 70.84 71.58 71.70 71.76 71.95 71.18 70.44 70.51 70.15 69.98 70.07 69.73 69.60 63.73 60.41 53.41 52.74 52.79
MSLP
1009.91 1010.23 1010.20 1010.61 1010.95 1011.13 1011.67 1011.21 1010.77 1009.77 1009.79 1008.91 1008.44 1008.02 1008.38 1008.44 1008.95 1009.70 1010.36 1010.85 1011.20 1011.44 1011.72 1011.62 1011.82 1011.99 1012.45 1013.16 1013.39 1013.53 1013.42 1013.41 1013.49 1013.81 1014.24 1014.44 1014.34 1014.21 1014.48 1014.25 1014.49 1014.58 1015.03 1015.43
1009.73 1009.73 1010.19 1010.75 1011.04 1011.08 1011.21 1010.97 1009.93 1009.31 1009.31 1009.40 1008.73 1008.81 1008.54 1008.42 1008.71 1008.95 1009.71 1010.36 1010.49 1011.01 1011.65 1011.80 1011.48 1011.98 1012.52 1012.98 1013.37 1013.23 1013.25 1013.32 1013.38 1013.39 1013.70 1013.84 1013.76 1013.78 1013.89 1013.88 1013.98 1014.15 1014.48 1014.68
1008.94 1008.68 1009.66 1011.01 1011.01 1010.57 1010.74 1009.93 1009.32 1009.09 1008.52 1008.68 1008.78 1009.06 1008.68 1008.65 1008.69 1009.10 1009.42 1009.75 1009.96 1010.21 1011.02 1011.60 1011.88 1012.01 1012.45 1012.73 1012.57 1012.70 1012.90 1013.06 1013.14 1013.31 1013.63 1013.81 1013.86 1013.99 1014.23 1014.35 1014.32 1014.28 1014.05 1014.39
1008.55 1007.59 1008.35 1009.97 1009.69 1010.21 1010.00 1008.58 1007.89 1008.45 1009.20 1009.49 1009.98 1009.79 1008.71 1008.60 1008.77 1008.92 1009.09 1009.32 1009.57 1009.77 1010.25 1010.74 1011.21 1011.51 1011.82 1011.80 1012.01 1012.22 1012.54 1012.73 1012.89 1013.14 1013.64 1014.01 1014.11 1014.28 1014.23 1014.29 1014.17 1014.17 1013.96 1014.06
1007.75 1007.41 1007.71 1008.55 1008.85 1009.29 1008.92 1008.11 1008.13 1007.82 1009.53 1010.46 1011.05 1010.64 1008.89 1008.55 1008.79 1008.44 1008.40 1008.64 1008.98 1009.08 1009.52 1010.10 1010.51 1010.92 1011.35 1011.26 1011.50 1011.68 1012.02 1012.23 1012.47 1012.98 1013.43 1013.90 1014.06 1014.05 1013.87 1013.98 1014.01 1014.10 1014.04 1013.91
1007.34 1006.40 1006.61 1007.40 1007.33 1007.70 1007.85 1008.59 1009.34 1009.89 1010.70 1012.40 1012.76 1012.00 1009.74 1008.28 1007.31 1007.27 1007.40 1007.67 1008.11 1008.55 1008.96 1009.24 1009.77 1010.20 1010.53 1010.72 1011.09 1011.54 1011.72 1012.02 1012.34 1012.79 1013.19 1013.57 1013.84 1014.04 1014.10 1014.13 1014.22 1014.23 1014.28 1014.03
1006.46 1005.67 1005.86 1005.94 1006.64 1007.53 1007.94 1009.57 1011.14 1011.65 1012.46 1013.20 1012.68 1011.70 1009.52 1007.80 1006.93 1006.62 1006.39 1006.77 1007.19 1007.72 1008.27 1008.75 1009.25 1009.70 1009.93 1010.41 1010.81 1011.21 1011.55 1011.90 1012.20 1012.56 1012.92 1013.23 1013.49 1013.81 1013.94 1013.99 1014.02 1014.31 1014.35 1014.07
1006.17 1005.19 1004.57 1004.51 1005.26 1006.19 1008.03 1009.39 1010.88 1013.03 1014.08 1013.79 1012.83 1012.01 1008.84 1007.02 1005.63 1004.80 1004.95 1005.61 1006.36 1006.84 1007.35 1007.93 1008.15 1008.78 1009.33 1009.83 1010.39 1010.76 1011.13 1011.47 1011.87 1012.26 1012.63 1012.89 1013.18 1013.63 1013.83 1013.84 1014.02 1014.09 1013.90 1013.57
1005.34 1004.69 1003.62 1003.35 1004.18 1004.99 1007.36 1009.27 1010.84 1012.45 1014.30 1014.47 1013.72 1011.88 1008.84 1006.46 1004.58 1004.09 1004.62 1005.20 1005.69 1006.16 1006.46 1006.87 1007.32 1007.94 1008.50 1009.20 1009.60 1009.97 1010.37 1010.76 1011.24 1011.67 1012.20 1012.62 1012.87 1013.11 1013.34 1013.41 1013.54 1013.84 1013.69 1013.66
1003.84 1004.17 1003.24 1003.17 1004.19 1005.24 1005.93 1008.60 1010.17 1011.67 1013.83 1015.26 1014.08 1012.29 1009.88 1006.72 1005.57 1004.93 1004.87 1004.92 1004.94 1005.36 1005.80 1006.29 1006.66 1007.07 1007.62 1008.08 1008.51 1009.19 1009.65 1010.06 1010.46 1011.22 1011.81 1012.21 1012.41 1012.66 1012.88 1013.03 1013.20 1013.43 1013.53 1013.46
1003.09 1003.71 1003.62 1003.68 1004.04 1004.58 1006.57 1007.85 1009.00 1010.43 1012.02 1013.37 1012.69 1010.18 1006.75 1006.01 1005.33 1004.54 1003.98 1004.00 1004.30 1004.64 1005.01 1005.73 1006.12 1006.34 1006.88 1007.38 1008.23 1008.81 1009.48 1009.94 1010.42 1010.96 1011.45 1011.87 1012.13 1012.27 1012.51 1012.73 1012.98 1013.04 1013.31 1013.41
1002.55 1003.83 1004.46 1004.06 1002.98 1003.23 1004.53 1005.95 1007.29 1009.37 1011.86 1011.76 1010.95 1007.64 1005.68 1005.03 1004.79 1004.58 1003.84 1003.15 1003.38 1003.82 1004.56 1004.88 1005.12 1005.91 1006.66 1006.99 1007.76 1008.44 1009.08 1009.69 1010.13 1010.37 1010.65 1011.13 1011.67 1012.20 1012.36 1012.54 1012.84 1012.88 1013.01 1013.36
1002.71 1004.31 1005.00 1004.77 1004.04 1004.49 1004.53 1005.59 1006.37 1007.57 1009.25 1010.01 1009.50 1005.99 1003.92 1004.34 1004.49 1003.76 1002.76 1002.82 1003.03 1003.53 1004.20 1004.73 1005.36 1005.91 1006.17 1006.90 1007.65 1008.45 1008.87 1009.24 1009.74 1010.16 1010.52 1010.84 1011.18 1011.68 1012.09 1012.14 1012.32 1012.43 1012.68 1012.96
1003.46 1004.84 1005.59 1005.94 1005.22 1004.63 1004.07 1004.65 1004.92 1005.83 1007.64 1008.27 1007.35 1004.56 1003.29 1003.38 1003.80 1004.19 1002.83 1002.65 1003.06 1003.42 1004.07 1004.48 1005.06 1005.52 1006.06 1006.71 1007.27 1008.05 1008.32 1008.52 1009.08 1009.64 1009.99 1010.24 1010.73 1011.07 1011.45 1011.62 1011.84 1011.91 1012.41 1012.90
1005.41 1005.91 1005.71 1005.45 1004.99 1004.13 1003.76 1003.88 1004.30 1004.60 1005.25 1005.62 1005.05 1004.55 1002.47 1002.29 1002.91 1003.31 1003.09 1003.09 1003.43 1003.85 1003.82 1004.35 1004.96 1005.30 1005.91 1006.49 1006.99 1007.49 1007.68 1007.83 1008.52 1008.95 1009.47 1009.80 1010.09 1010.52 1011.09 1011.42 1011.68 1012.13 1012.62 1012.94
1006.58 1006.68 1006.52 1005.93 1004.85 1004.27 1003.54 1002.86 1002.61 1003.44 1003.75 1003.79 1003.77 1003.58 1001.78 1001.56 1002.16 1002.84 1003.08 1002.95 1003.61 1003.91 1004.17 1004.40 1004.94 1005.32 1005.74 1006.28 1006.72 1007.33 1007.95 1008.29 1008.80 1009.35 1009.41 1009.62 1010.22 1010.69 1011.33 1011.80 1012.03 1012.30 1012.77 1013.38
1007.31 1007.25 1007.51 1006.97 1005.73 1004.84 1003.86 1002.61 1002.17 1001.93 1001.91 1002.39 1002.98 1002.00 1001.15 1001.09 1001.69 1002.19 1002.86 1002.75 1003.24 1003.82 1004.25 1004.61 1004.94 1005.20 1005.47 1006.02 1006.42 1007.27 1007.78 1008.19 1008.70 1009.45 1009.41 1009.70 1010.12 1010.90 1011.58 1011.85 1012.31 1012.64 1013.22 1013.76
1007.33 1007.59 1007.77 1007.55 1006.64 1005.73 1003.50 1002.20 1001.82 1001.29 1001.24 1001.08 1001.07 1000.85 1000.52 1000.11 999.84 1001.15 1002.23 1001.96 1002.62 1003.26 1004.03 1004.52 1005.23 1005.55 1005.80 1005.93 1006.58 1007.32 1007.92 1008.63 1009.48 1010.02 1009.83 1009.63 1010.26 1011.08 1011.65 1011.84 1012.70 1013.10 1013.65 1014.06
1006.51 1007.22 1007.97 1007.90 1007.42 1006.02 1003.55 1002.16 1001.73 1001.42 1001.44 1001.01 1000.63 1000.42 1000.18 1000.19 1000.60 1001.20 1001.59 1001.12 1001.73 1002.47 1003.32 1003.98 1004.52 1005.28 1005.84 1006.34 1006.76 1007.41 1008.19 1008.64 1009.27 1009.79 1009.87 1010.13 1010.45 1011.20 1011.67 1012.07 1012.86 1013.53 1013.92 1014.43
1007.29 1007.35 1008.21 1008.46 1008.04 1006.62 1005.06 1003.89 1002.04 1001.50 1002.65 1003.81 1004.02 1002.18 1000.36 1000.18 1001.33 1000.58 1000.35 1000.80 1001.45 1002.10 1002.67 1003.65 1004.53 1005.04 1005.97 1006.64 1007.17 1007.84 1008.55 1009.00 1009.31 1009.78 1009.75 1009.91 1010.65 1010.94 1011.68 1012.26 1013.07 1013.58 1014.01 1014.50
1009.21 1008.94 1009.15 1008.99 1008.24 1006.84 1007.01 1004.85 1002.40 1004.26 1007.03 1005.65 1004.67 1002.91 1001.59 1000.25 1000.68 999.63 999.87 1000.82 1001.14 1001.76 1002.48 1003.04 1004.19 1005.02 1005.81 1006.51 1007.15 1007.87 1008.41 1009.00 1009.29 1009.57 1009.84 1010.13 1010.52 1011.01 1011.72 1012.45 1013.13 1013.80 1014.31 1014.78
1011.38 1011.34 1010.90 1009.88 1008.96 1008.77 1008.05 1006.40 1007.56 1009.57 1008.45 1006.96 1005.25 1004.25 1003.94 1001.78 1000.01 999.59 999.68 1000.61 1001.20 1001.68 1002.41 1003.19 1003.91 1004.76 1005.84 1006.47 1007.20 1008.01 1008.51 1008.93 1009.53 1009.80 1010.23 1010.57 1010.72 1011.38 1012.14 1012.79 1013.56 1013.95 1014.51 1015.07
1012.92 1012.87 1012.71 1012.03 1011.03 1010.34 1010.10 1009.96 1009.96 1009.56 1008.50 1007.03 1005.63 1004.64 1003.98 1003.27 1002.07 1000.08 999.81 1000.52 1001.70 1002.83 1003.03 1003.20 1004.03 1004.62 1005.62 1006.26 1007.14 1008.38 1008.78 1008.97 1009.54 1010.08 1010.50 1010.94 1011.36 1011.95 1012.37 1013.06 1013.68 1014.21 1014.71 1015.02
1013.62 1013.19 1013.45 1012.59 1010.53 1010.57 1010.57 1010.02 1009.58 1008.91 1008.21 1007.12 1005.60 1005.15 1004.55 1004.20 1003.05 1001.68 1000.66 1000.95 1002.06 1002.56 1005.66 1004.46 1004.13 1004.76 1005.76 1006.57 1007.18 1007.67 1008.69 1008.77 1009.50 1010.24 1010.97 1011.34 1011.83 1012.41 1012.70 1013.10 1013.57 1014.04 1014.55 1014.95
1014.77 1014.01 1013.53 1012.96 1011.86 1010.70 1010.25 1010.39 1009.87 1008.45 1007.82 1007.03 1006.31 1005.35 1004.47 1004.36 1003.73 1002.11 1001.77 1001.20 1001.47 1002.44 1004.35 1005.47 1004.23 1004.57 1005.58 1006.26 1007.22 1007.62 1008.25 1008.63 1009.56 1010.37 1011.02 1011.66 1012.11 1012.54 1012.88 1013.39 1013.70 1013.83 1013.91 1014.26
1014.12 1013.88 1013.77 1012.99 1012.46 1011.71 1010.59 1010.00 1009.72 1008.77 1007.48 1007.06 1006.43 1004.77 1004.09 1004.36 1004.23 1002.98 1002.48 1001.56 1002.11 1001.60 1003.10 1005.00 1004.39 1004.57 1005.21 1006.01 1007.00 1007.47 1007.73 1008.28 1009.15 1010.09 1011.06 1011.83 1012.16 1012.41 1012.81 1013.44 1014.00 1014.01 1013.97 1014.10
Wind_Speed
4 5 3 6 4 3 4 6 10 14 10 2 4 2 11 11 10 12 10 11 11 11 11 10 10 10 6 3 4 8 7 7 4 2 2 1 3 3 4 6 9 7 8 10
1 1 4 6 3 2 3 6 10 12 6 4 2 7 6 14 13 16 16 13 13 10 12 13 12 12 13 10 10 7 8 7 5 3 3 3 3 2 3 7 5 5 8 10
4 7 1 2 2 10 6 5 8 7 8 12 3 12 7 13 10 9 11 11 10 14 12 16 16 14 11 11 10 8 9 9 6 7 2 2 3 3 3 1 2 4 7 7
3 6 5 7 9 6 5 7 7 5 1 2 8 5 4 13 13 12 13 12 12 13 9 10 14 6 7 12 8 9 10 8 8 7 3 3 3 3 3 4 4 5 4 6
9 5 6 8 8 14 11 10 5 2 6 5 11 3 5 7 11 12 14 15 14 13 14 13 10 12 9 12 10 11 10 8 7 6 5 4 4 3 2 2 3 3 3 5
8 2 5 6 12 19 3 0 7 6 2 5 4 3 6 4 4 17 15 17 17 16 15 13 12 13 16 14 12 11 8 8 7 7 7 7 7 5 2 1 4 1 2 3
4 6 4 9 7 11 3 8 3 6 7 1 9 2 8 9 3 11 18 18 19 17 16 15 13 11 15 15 14 11 8 9 8 8 7 7 7 6 6 3 4 2 2 3
4 8 10 10 8 8 5 8 7 4 3 5 7 4 10 15 23 14 15 21 19 16 14 18 19 15 14 17 15 12 9 10 8 8 8 7 7 4 4 4 2 4 3 3
5 6 4 6 7 8 3 4 2 10 5 4 8 7 12 11 10 9 12 16 18 18 17 18 18 15 14 15 16 15 12 12 8 10 7 7 7 7 6 6 4 3 4 1
5 3 6 3 6 4 7 11 3 4 6 4 8 8 9 10 6 2 7 12 19 18 18 16 16 16 13 16 16 16 15 15 13 8 7 7 7 7 6 5 5 3 4 4
4 4 7 4 6 10 4 3 5 7 4 7 4 8 11 11 9 8 11 12 17 20 18 17 16 16 16 15 15 15 13 8 7 7 6 7 7 7 6 6 5 2 3 4
1 6 1 4 9 5 5 6 6 6 5 2 1 8 6 8 7 8 15 13 15 15 16 18 18 16 13 14 14 12 7 7 7 7 8 8 6 6 6 6 6 5 6 5
2 2 4 11 9 5 2 1 3 7 5 7 6 8 6 6 3 10 8 11 10 10 8 8 10 12 13 12 11 11 10 10 9 8 5 6 7 7 7 7 7 7 6 6
6 3 7 7 10 3 7 6 8 8 5 7 8 8 7 6 7 8 6 8 8 6 11 12 11 13 11 12 13 11 12 11 9 8 6 6 8 9 9 7 7 6 6 6
5 2 6 4 7 3 4 4 7 5 5 8 10 10 12 9 10 11 6 7 7 6 9 14 14 12 12 14 14 14 13 6 3 6 4 5 7 8 5 4 6 6 6 8
5 4 5 7 7 9 5 9 6 7 10 4 2 11 11 7 6 6 9 8 7 7 9 8 7 13 16 15 13 7 4 3 4 1 5 4 6 7 7 6 9 10 8 6
2 2 5 7 5 7 6 4 3 5 6 10 6 13 8 7 7 10 10 9 10 8 7 7 9 10 13 15 12 9 7 4 4 6 7 6 10 10 9 8 8 9 8 7
6 1 4 5 6 4 10 4 10 9 6 6 3 5 11 13 14 6 11 13 12 11 9 8 7 6 6 6 8 8 7 7 7 5 6 10 9 11 9 9 9 8 6 8
10 5 2 4 4 7 9 4 2 4 6 5 4 3 7 3 6 2 10 14 13 11 11 9 8 10 6 8 8 9 7 7 7 7 7 7 8 9 9 10 10 6 8 6
4 2 6 3 3 6 6 21 13 4 5 26 23 19 6 4 5 10 14 14 11 13 12 10 8 7 9 9 10 11 8 7 7 7 6 7 7 10 10 10 9 4 5 5
7 5 3 4 4 2 18 21 9 9 11 27 25 18 10 8 7 5 7 8 12 15 12 12 12 10 11 12 11 10 8 8 6 7 7 8 10 11 10 8 6 6 6 6
2 2 3 4 3 1 22 10 12 6 15 21 18 17 9 10 2 6 14 10 14 16 14 15 14 14 12 12 12 9 8 7 7 8 9 9 9 9 8 10 5 6 6 6
4 5 3 2 2 4 6 4 5 10 14 17 12 15 8 11 12 4 10 11 9 7 11 15 16 15 11 11 13 11 9 9 9 9 10 9 8 7 7 8 7 6 5 5
7 3 3 6 5 9 13 8 15 16 14 20 13 14 11 5 10 3 8 10 13 16 9 10 15 16 13 11 11 14 10 10 11 10 9 7 8 6 6 5 5 5 5 4
6 6 3 7 8 14 2 9 14 19 17 19 18 16 15 8 7 5 7 9 14 14 2 6 14 15 14 13 12 14 12 12 11 10 8 6 6 7 6 4 3 3 2 3
4 6 3 8 8 11 11 15 15 14 18 18 22 23 22 2 6 2 7 7 11 14 14 8 13 16 16 15 14 13 13 13 13 10 7 7 7 5 4 5 3 5 5 2
Wind_Direction
15 47 81 150 163 171 203 286 303 282 296 3 233 51 174 163 147 146 155 160 166 168 157 176 178 195 191 185 201 184 167 191 162 174 151 257 244 183 185 197 205 174 189 195
328 316 138 102 169 119 243 219 267 293 220 231 339 297 223 176 176 172 167 178 173 159 156 178 191 184 195 189 198 176 192 182 199 180 183 194 188 187 153 188 193 181 183 187
158 238 76 76 53 352 320 260 273 235 283 211 171 217 221 202 178 173 181 176 178 178 179 182 196 187 181 182 186 183 184 188 191 208 106 35 27 45 72 84 267 240 193 169
20 296 178 134 118 228 316 262 156 244 126 146 37 278 248 178 195 184 180 180 188 186 196 177 197 176 169 195 182 186 191 192 203 182 160 156 197 169 201 190 203 220 199 186
243 202 194 160 184 177 227 253 301 195 106 91 350 55 262 124 204 200 193 186 193 191 191 186 178 182 200 200 194 201 196 195 198 183 170 184 202 196 189 189 209 228 207 201
263 277 169 137 195 192 207 251 8 20 35 67 276 133 287 221 216 200 194 191 186 192 196 198 184 183 195 205 201 202 200 211 196 190 188 194 203 188 167 213 222 187 293 241
282 232 124 156 171 203 189 61 349 1 13 221 327 44 243 259 275 220 198 188 187 186 192 194 200 187 192 197 201 205 192 213 200 198 193 193 196 195 206 195 228 107 251 237
211 328 170 180 175 162 168 144 154 130 347 310 354 343 279 293 285 249 182 181 185 187 187 195 200 196 189 192 196 201 192 213 193 189 200 188 179 183 204 213 189 212 231 250
151 270 258 160 145 144 204 66 125 102 359 26 317 293 289 277 358 152 165 171 184 191 187 189 200 190 189 187 194 195 195 212 197 195 182 182 183 187 191 215 221 196 264 201
231 288 217 180 112 25 164 158 84 29 109 65 274 278 240 296 331 108 191 185 188 192 195 195 199 190 187 188 192 195 196 199 197 181 181 186 192 195 198 202 222 227 232 195
193 123 289 111 200 171 96 206 70 110 111 153 231 250 217 219 251 224 193 195 186 196 193 195 200 198 181 184 184 194 193 174 160 162 178 188 199 195 197 198 204 240 181 169
207 126 319 268 279 173 108 162 144 120 224 220 183 273 121 205 228 262 246 187 200 191 191 193 192 189 181 182 179 180 154 147 151 159 180 192 177 192 197 210 213 208 194 156
211 28 9 350 360 6 281 83 106 99 105 193 163 256 188 146 288 277 147 187 188 192 167 158 143 154 164 159 150 150 158 165 174 167 157 175 183 183 205 202 205 207 177 128
47 101 150 182 225 208 313 178 177 127 131 164 236 255 241 200 201 259 151 146 158 160 162 161 156 156 148 153 155 163 172 186 154 157 166 161 186 198 201 199 203 180 147 144
43 356 342 283 238 265 280 179 211 205 158 163 221 234 258 196 194 211 216 145 141 151 151 167 154 150 150 158 172 178 185 186 109 145 164 213 195 194 171 146 164 124 119 141
358 289 34 315 324 356 316 329 216 193 199 287 189 248 260 237 118 169 218 149 159 163 172 152 132 147 156 161 174 154 188 197 106 48 224 221 156 133 115 118 121 130 121 101
273 59 29 280 343 341 1 289 230 257 176 173 171 226 266 242 187 184 215 164 161 163 171 169 154 153 149 169 163 169 182 171 145 202 162 144 135 122 123 122 121 122 115 120
247 133 157 247 20 344 237 282 254 215 287 261 271 201 225 224 215 158 209 165 165 162 169 176 152 163 162 136 134 134 128 150 148 165 127 123 125 123 136 137 129 116 131 127
200 166 236 162 182 269 303 283 281 187 264 237 185 289 201 127 84 312 207 177 171 160 170 180 169 159 162 150 138 120 128 122 140 151 150 133 136 128 130 127 126 134 126 123
70 177 147 128 163 224 332 331 294 145 224 3 330 292 210 126 152 234 196 178 165 166 163 161 158 132 138 149 135 138 142 139 141 159 155 137 141 132 130 132 131 121 127 128
336 345 189 183 208 281 335 330 325 62 320 324 337 302 284 148 203 272 144 169 166 173 167 144 141 139 140 138 136 131 132 139 140 121 123 124 133 125 131 122 120 125 122 121
43 342 339 340 185 289 351 23 52 306 319 321 342 1 344 322 289 183 166 159 164 170 152 148 142 138 141 136 130 129 133 133 130 121 124 124 116 131 133 124 128 132 128 138
44 122 245 111 244 165 25 76 1 337 323 327 324 344 329 331 314 345 144 119 89 121 148 149 146 137 142 137 138 142 152 137 130 126 122 123 120 129 130 133 142 136 148 157
341 40 2 359 307 346 340 357 343 339 327 329 340 323 314 315 301 43 110 114 104 88 284 166 141 141 141 145 147 141 151 139 133 129 136 134 133 130 137 137 150 149 159 167
242 340 289 259 295 317 173 344 337 325 336 334 319 321 304 267 275 190 173 181 141 143 190 230 151 145 147 142 145 150 150 141 139 141 137 138 145 162 156 114 167 178 173 191
190 254 294 286 282 273 294 319 321 320 323 337 331 331 337 183 250 323 203 207 163 142 153 185 165 151 148 145 151 155 153 149 149 144 141 165 173 172 156 150 146 75 69 10